Regional Weather Roundup
Issued by NWS Sioux Falls, SD

Home | Current Version | Previous Version | Text Only | Print | Product List | Glossary Off
Versions: 1 2 3 4 5 6 7 8 9 10 11 12 13 14 15 16 17 18 19 20 21 22 23 24 25 26 27 28 29 30 31 32 33 34 35 36 37 38 39 40 41 42 43 44 45 46 47 48 49 50

000
ASUS43 KFSD 080610
RWRFSD

WEATHER ROUNDUP FOR SE SOUTH DAKOTA/SW MINNESOTA/NW IOWA
NATIONAL WEATHER SERVICE SIOUX FALLS SD
1200 AM CST THU DEC 08 2016

NOTE: "FAIR" INDICATES FEW OR NO CLOUDS BELOW 12,000 FEET WITH NO
SIGNIFICANT WEATHER AND OR OBSTRUCTIONS TO VISIBILITY.


SDZ038>040-050-052>070-080700-
SOUTHEAST SOUTH DAKOTA

CITY           SKY/WX    TMP DP  RH WIND       PRES   REMARKS
BROOKINGS      LGT SNOW   7   3  84 NW18G26   30.31R FOG     WCI -12
CHAMBERLAIN    CLEAR      9   2  75 NW14G23   30.50R WCI  -8
6HR MIN TEMP:   9; 6HR MAX TEMP:  14;

HURON          CLOUDY     7   1  76 NW23G30   30.44S WCI -14
6HR MIN TEMP:   7; 6HR MAX TEMP:  12; 6HR PCP: TRACE;

MADISON        FLURRIES   7   3  85 NW25G32   30.34R WCI -15
MITCHELL       CLEAR      9   1  70 NW20G30   30.47R WCI -10
6HR MIN TEMP:   9; 6HR MAX TEMP:  15;

SIOUX FALLS    CLEAR      8   3  80 NW20G31   30.37R WCI -11
6HR MIN TEMP:   8; 6HR MAX TEMP:  14;

WINNER         FAIR       7  -2  66 NW21G28   30.50R WCI -13
YANKTON        PTCLDY    10   3  72 W20G28    30.45R WCI  -8
$$

MNZ071-072-080-081-089-090-097-098-080700-
SOUTHWEST MINNESOTA

CITY           SKY/WX    TMP DP  RH WIND       PRES   REMARKS
FAIRMONT       MOCLDY    11   4  73 NW25      30.26S WCI -10
JACKSON        PTCLDY     9   3  78 W23G31    30.26S WCI -12
LUVERNE        PTCLDY     9   1  72 NW24G31   30.35R WCI -12
MARSHALL       LGT SNOW  11   6  81 NW25G32   30.27S WCI -10
6HR MIN TEMP:  10; 6HR MAX TEMP:  11; 6HR PCP: TRACE;

MONTEVIDEO     LGT SNOW  14  10  85 NW14G20   30.28R WCI  -1
PIPESTONE      CLEAR      9   1  72 NW18G29   30.30R WCI -10
REDWOOD FALLS  CLOUDY    13   6  74 W22G28    30.25R WCI  -6
TRACY          CLOUDY    11   6  79 W15G23    30.28R WCI  -5
WINDOM         MOCLDY    10   3  72 W22G30    30.25S WCI  -9
WORTHINGTON    CLEAR      7   2  80 W26G35    30.28S WCI -15
$$

IAZ001>003-012>014-020>022-031-032-NEZ013-014-SDZ071-080700-
NORTHWEST IOWA

CITY           SKY/WX    TMP DP  RH WIND       PRES   REMARKS
CHEROKEE       PTCLDY    11   3  71 NW21G29   30.38R WCI  -8
DENISON        CLOUDY    14   7  73 W10G17    30.38R WCI   1
ESTHERVILLE    CLEAR      9   3  77 W23G32    30.28R WCI -11
LE MARS        CLOUDY    10   3  72 NW22G31   30.43R WCI  -9
ORANGE CITY    CLEAR      9   3  78 NW28G37   30.36R WCI -13
SHELDON        PTCLDY     9   3  78 W21G30    30.33S WCI -11
SIOUX CITY     MOCLDY    15   4  61 NW22G29   30.43R WCI  -3
6HR MIN TEMP:  15; 6HR MAX TEMP:  19;

SPENCER        CLEAR      9   3  77 W28G39    30.32R WCI -13
6HR MIN TEMP:   9; 6HR MAX TEMP:  17; 6HR PCP: TRACE;

STORM LAKE     MOCLDY    10   5  79 NW30      30.33R WCI -12
$$

ABBREVIATIONS USED IN REMARKS
   TC - TEMPERATURE IN CELSIUS
  WCI - WIND CHILL INDEX
   HX - HEAT INDEX
  VSB - VISIBILITY





USA.gov is the U.S. government's official web portal to all federal, state and local government web resources and services.